map of LHR home
LHR - Airport
Location
City:  London, Middlesex, England, United Kingdom
Name:Heathrow Airport
ICAO:EGLL
IATA:LHR

Details
Type:Airport (Aerodrome, Airfield)
Use:Public/Civil, International (customs port of entry)
Latitude:5128'39"N (51.477500)
Longitude:027'41"W (-0.461388)
Elevation:83 ft (25 m)
Variation:0.66W (WMM2015 magnetic declination)
0.15 annual change
Runways:2
Longest:12802 × 164 ft (3902 × 50 m), paved

Time
Time Zone:UTC+0 (DST+1)
Local Time:

Weather
METAR:EGLL 291450Z AUTO 22012KT 9999 OVC010 13/11 Q1022 TEMPO FEW010 BKN015
TAF:EGLL 291100Z 2912/3018 22012KT 9999 BKN018 PROB30
TEMPO 2921/3006 8000 -SHRA

Related Locations
Nearby:
Farthest:CHT: 11869 mi / 19102 km
Waitangi [Tuuta], CIT, NZ

Find:

   beyond  
but within

Other Information
Maps:
NOTAMs:
Links:
Sources:

  
flag of United Kingdom
flag of England
flag of Middlesex
  

Airport Diagram

Airport diagram for LHR

Airport diagram PDF

Sectional Chart

Flight Planning
at skyvector.com

Satellite Image

Google Maps Satellite view

 

Copyright © 2004-2017 Karl L. Swartz. All rights reserved.
The Great Circle Mapper name and logo are trademarks of the Great Circle Mapper.
All other trademarks mentioned herein belong to their respective owners.
Please see credits for attibutions and further copyright information.

  Follow gcmap on Facebook Follow gcmap on Twitter Follow gcmap on Google+ GCmap on LinkedIn

hCard Microformat

Geo Microformat